User: anonymous   Login
Location: Unspecified
(0.0000°N, 0.0000°E)
Time: 04:04:12
(UTC+00:00)
Language:

XW-2C - Orbit

View from above orbital plane
View from above orbital plane
View from above satellite
View from above satellite

Ground track
Ground track

The orbit data is extracted from the following two-line orbital elements,

1 40906U 15049H   21289.87776948  .00002254  00000-0  11694-3 0  9993
2 40906  97.4907 290.7640 0015914 122.6895 353.7719 15.17064187335970
Epoch (UTC): 16 October 2021 21:03:59
Eccentricity: 0.0015914
inclination: 97.4907°
perigee height: 504 km
apogee height: 525 km
right ascension of ascending node: 290.7640°
argument of perigee: 122.6895°
revolutions per day: 15.17064187
mean anomaly at epoch: 353.7719°
orbit number at epoch: 33597

The dashed part of the orbit path shows where the satellite is in the earth's shadow,  

DLR